Theta_e
291 291 292 292 292 292 293 295 296 298 299 299 299 299 300 299 300 301 301 302 303 303 304 304 305 306 307 309 312 313 314 316 319 321 321 321 321 322 323 323 323 322 320 319 319 317 316 316 316 316 316 314 313 313 312 311 310 310 309 308 306 306 306 304 302 301 302 304 304 305 304 306 304 305 306 305 305 304 305 306 308 309 309 310 311
291 291 291 291 291 292 292 293 295 297 297 298 298 299 299 300 300 300 300 301 302 303 303 304 304 305 306 308 310 311 313 314 316 317 319 320 320 321 321 321 321 321 319 317 316 316 315 315 315 315 315 314 313 312 312 309 308 309 308 308 307 306 307 306 304 302 301 301 302 302 303 302 302 305 304 303 301 302 303 304 307 307 308 308 309
290 290 290 290 291 291 292 292 293 293 294 296 297 298 299 299 300 300 300 300 301 302 302 303 304 304 304 305 307 309 311 312 314 315 315 316 317 318 319 319 319 318 318 317 315 315 314 313 313 314 314 314 313 312 311 309 308 308 308 308 307 307 306 307 304 301 301 300 300 302 302 301 301 302 302 303 303 303 302 304 305 305 306 306 307
289 289 289 289 290 290 291 291 291 291 291 293 294 296 298 299 299 299 300 300 300 301 301 302 303 303 304 304 305 306 308 310 312 313 314 314 315 316 316 316 316 317 317 316 315 314 314 313 312 313 313 312 312 311 309 309 308 308 308 308 308 307 307 306 306 303 300 300 295 302 300 301 299 302 303 303 302 301 302 302 302 303 303 303 303
288 288 288 287 288 289 290 290 290 290 290 291 292 294 296 297 298 299 299 299 300 300 300 300 301 302 303 303 305 305 306 308 309 310 312 313 313 314 315 315 314 314 315 314 309 314 313 313 313 312 312 311 311 311 308 308 309 308 308 308 307 307 306 306 305 304 301 300 296 295 293 292 293 296 299 300 297 299 298 299 299 299 300 300 299
287 286 286 286 287 288 289 289 289 289 289 290 290 292 294 296 297 299 299 299 299 300 300 300 300 301 302 303 304 304 305 306 306 307 309 310 311 312 314 315 315 314 314 314 313 313 313 313 313 312 312 311 311 311 309 308 308 308 307 307 307 306 305 304 304 303 303 300 299 293 293 294 291 291 294 297 297 293 292 292 292 294 295 298 298
285 285 285 285 286 287 287 287 288 288 288 289 289 290 292 294 296 297 298 299 299 298 299 299 300 300 301 302 302 303 303 304 305 305 307 308 310 310 311 313 314 314 314 313 313 313 312 313 312 312 312 311 311 310 309 308 308 307 307 307 306 305 303 302 302 302 302 299 294 295 295 291 294 294 292 292 291 293 295 291 293 291 290 294 296
284 283 284 284 285 285 286 286 287 287 287 287 288 289 290 291 292 294 296 298 298 298 298 299 299 299 300 301 302 302 302 303 304 305 306 307 308 309 310 311 312 313 313 313 313 312 312 312 312 312 312 312 311 311 310 308 308 307 307 307 306 304 303 301 301 302 301 299 299 297 292 292 291 289 290 290 291 292 291 292 294 294 291 290 290
282 282 282 282 283 284 285 285 286 286 285 286 286 287 288 288 289 291 294 296 298 298 299 299 299 299 299 300 301 301 302 303 304 304 304 305 307 307 308 309 310 310 311 312 312 311 311 311 311 312 310 304 303 304 304 304 308 307 306 306 305 304 303 302 302 302 301 301 298 295 295 293 293 292 290 291 292 296 291 290 290 289 290 291 292
281 281 281 281 282 283 283 283 284 284 284 284 284 285 285 286 287 288 290 293 296 297 298 298 298 298 298 299 299 301 302 303 299 298 299 304 305 306 307 307 307 308 308 309 309 310 310 310 310 302 300 299 298 299 300 300 301 306 307 306 304 304 303 302 301 302 302 301 300 296 295 295 294 293 293 290 289 290 291 290 290 289 290 291 291
280 279 280 281 281 281 281 281 282 282 282 283 283 284 284 285 286 286 288 291 293 296 297 297 297 297 297 298 298 300 301 302 297 299 299 299 303 305 305 305 305 306 306 306 307 307 308 309 310 302 299 297 299 297 299 299 299 300 300 301 301 305 303 302 301 302 301 300 300 297 298 296 293 293 293 292 291 293 293 291 291 291 291 291 291
279 279 279 279 280 280 280 280 280 280 281 281 282 282 283 284 284 285 286 288 290 292 294 295 297 297 298 297 297 299 299 296 298 298 298 298 298 303 304 304 304 304 305 305 306 306 306 307 308 308 304 305 304 301 299 297 298 298 298 298 299 300 301 303 301 301 300 300 299 298 299 298 295 293 294 293 293 292 290 291 290 291 291 291 289
278 278 279 279 279 279 279 278 279 279 280 281 281 282 282 283 283 284 285 286 288 289 292 294 295 297 297 296 296 297 297 296 297 297 298 298 298 299 304 304 303 303 304 304 304 305 305 305 306 308 306 296 299 303 303 300 296 296 297 297 297 298 300 300 300 304 304 301 300 298 299 298 295 295 296 295 294 293 291 291 291 292 291 292 291
277 277 278 278 278 278 278 277 277 278 279 279 280 281 281 281 283 284 284 285 286 288 290 292 293 295 296 296 296 296 296 295 297 297 296 297 297 298 302 303 303 303 302 303 303 303 304 304 305 305 304 299 302 303 303 301 300 299 298 299 301 297 296 298 297 297 299 303 302 299 299 299 298 297 297 296 295 293 292 292 291 291 292 292 291
277 277 277 277 277 277 277 277 277 277 278 278 279 279 280 281 282 283 284 284 285 286 288 290 291 293 294 296 296 296 297 296 297 297 297 297 297 297 300 302 302 302 303 302 302 303 303 304 304 304 303 300 301 302 302 301 300 300 299 299 300 300 300 300 300 302 302 304 303 300 299 300 298 297 298 298 298 297 296 294 294 293 291 289 290
276 276 276 276 276 276 276 276 276 276 277 277 278 278 279 280 282 283 283 284 285 286 287 289 290 291 293 294 295 296 297 296 296 296 296 296 297 297 298 299 300 300 301 301 301 302 303 303 304 304 303 301 297 297 299 301 301 300 299 299 299 299 299 298 298 300 302 302 300 299 299 300 298 298 297 298 295 293 294 295 294 292 292 292 290
275 275 275 275 275 275 275 275 275 276 276 276 276 277 278 280 281 283 283 283 284 285 286 288 290 291 291 292 293 295 296 295 295 295 295 296 296 296 296 297 298 299 299 300 300 301 302 302 303 303 302 301 297 297 298 297 300 300 299 299 299 299 299 298 297 298 298 298 298 298 299 299 299 298 297 297 294 296 295 293 291 293 293 292 289
274 273 273 273 274 274 274 275 275 276 276 276 276 277 278 280 282 283 283 283 283 284 286 287 289 290 290 291 292 292 294 294 294 294 295 295 294 295 295 296 296 297 298 299 299 300 300 294 296 302 302 301 297 297 298 298 300 300 299 300 300 299 299 298 300 298 295 296 296 296 297 297 297 297 297 296 296 295 296 293 293 295 293 293 290
272 272 272 273 273 273 274 275 275 275 275 275 276 276 278 279 281 282 282 283 283 284 285 287 288 289 290 290 289 290 292 292 293 294 294 294 294 294 295 295 296 296 297 298 299 300 300 295 292 297 300 299 297 297 297 297 301 299 299 299 299 299 300 299 300 299 298 299 297 296 294 294 295 296 296 294 294 294 297 295 295 296 293 292 290
271 272 272 272 272 273 274 274 274 274 274 275 276 277 278 279 280 280 282 283 283 284 285 286 287 288 289 289 290 291 291 292 292 293 294 293 293 294 295 296 296 297 298 297 297 299 301 301 296 295 298 297 297 297 297 297 300 300 299 299 298 298 300 299 299 300 298 299 297 295 294 292 291 292 294 294 294 293 293 293 295 296 294 292 291
270 270 270 271 271 272 273 273 273 274 274 275 276 277 278 278 279 280 281 283 283 284 284 285 286 287 288 288 289 290 291 291 291 292 293 293 293 292 295 296 298 298 299 296 298 299 300 300 299 295 296 297 296 297 297 296 297 299 299 299 299 299 298 299 295 293 298 295 293 293 292 291 291 292 292 294 293 293 292 293 293 292 294 292 292
269 269 269 269 271 271 272 272 273 273 274 275 275 275 277 278 279 280 281 282 282 283 284 285 286 286 287 288 289 290 290 288 290 290 291 292 293 293 293 296 298 299 298 298 298 299 300 299 299 296 295 295 295 296 297 296 296 297 299 297 297 296 299 298 297 296 295 293 292 291 291 291 291 290 291 292 292 292 292 294 294 293 293 295 295
267 267 268 268 269 270 271 271 271 273 273 275 275 275 276 277 278 279 280 281 282 282 283 284 285 286 286 287 288 289 290 290 288 289 290 291 292 292 292 293 294 296 298 298 298 299 300 300 297 293 294 294 294 296 296 296 295 297 297 297 296 295 294 295 293 294 294 293 292 292 291 291 290 290 290 291 292 292 291 291 290 288 287 286 287
265 265 266 267 268 268 269 270 271 271 272 273 274 274 275 276 277 278 279 280 281 281 283 284 284 284 285 285 287 288 289 290 289 288 288 289 291 292 292 292 293 294 296 298 298 299 299 299 296 293 294 293 294 295 295 295 295 296 296 296 294 292 294 293 293 294 292 292 292 292 291 291 291 290 290 291 291 291 289 288 288 287 287 287 287
264 264 265 265 266 267 268 269 269 270 271 272 272 273 273 275 275 276 277 278 279 280 281 283 283 283 283 284 285 287 288 289 289 289 288 288 289 290 291 292 292 292 292 294 294 299 296 295 294 293 293 293 293 293 294 293 294 295 295 293 290 295 294 293 294 293 292 292 292 292 291 291 292 292 291 291 288 288 287 286 286 286 286 287 286
262 262 263 264 265 266 267 268 268 269 270 271 272 272 273 273 274 275 276 277 278 279 280 281 282 282 282 282 283 284 286 287 288 289 288 288 287 288 289 289 288 289 289 293 291 292 294 294 293 293 291 291 292 293 292 293 292 292 292 290 295 295 293 294 293 293 293 293 292 292 291 290 290 290 289 289 289 289 288 287 287 287 288 288 288
261 261 261 263 265 266 266 267 267 268 268 269 270 271 272 272 272 273 274 275 276 277 278 279 280 280 281 282 282 283 284 286 287 288 289 289 289 289 289 288 287 287 288 290 290 291 292 293 293 291 291 290 290 290 291 290 291 292 292 293 295 294 294 294 294 294 293 293 292 291 291 290 289 288 288 289 289 289 288 288 289 288 288 288 288
259 259 260 263 264 266 266 267 267 267 268 269 269 270 270 271 271 271 273 274 274 275 277 278 278 279 280 281 282 282 283 284 285 286 287 287 287 288 289 288 289 289 289 290 291 291 292 289 290 290 290 290 291 291 292 291 292 292 293 293 294 293 292 291 291 293 294 293 291 290 289 289 288 288 288 289 289 288 288 289 289 288 288 288 287
258 259 261 262 263 265 265 266 266 267 267 268 269 270 270 270 271 272 274 275 276 276 276 277 278 280 281 281 281 282 283 283 284 286 286 286 286 286 288 288 289 289 289 290 290 289 290 291 290 290 290 290 290 290 290 291 291 292 292 292 294 293 292 293 293 293 293 292 291 290 289 289 288 288 289 289 288 288 288 289 289 289 288 289 289
257 258 260 261 262 263 264 265 266 266 267 267 267 268 272 272 273 273 273 276 278 279 279 278 279 281 281 283 284 283 283 284 286 286 286 286 286 287 288 288 289 289 289 291 290 290 290 291 290 290 290 290 290 290 290 290 290 291 291 290 292 292 292 292 292 293 292 292 291 290 289 289 289 288 289 288 287 288 288 288 288 289 289 289 287
257 257 258 259 261 263 263 264 265 266 267 267 267 267 268 270 273 275 276 276 277 278 280 281 282 283 283 283 284 285 285 285 286 286 285 286 287 287 288 288 289 289 290 290 291 291 290 290 290 290 289 290 290 291 290 290 290 290 291 291 291 291 291 292 292 292 291 291 291 290 290 290 289 289 288 288 287 288 288 288 289 289 290 289 288
255 256 257 259 261 262 263 264 265 265 266 266 267 267 267 267 269 272 274 275 276 278 280 281 282 282 283 283 283 283 285 285 285 285 285 285 285 286 287 287 288 289 289 291 290 290 291 290 290 290 289 289 289 290 290 290 290 290 290 290 290 290 291 291 291 291 291 291 291 290 290 290 289 289 289 288 288 288 288 288 288 289 289 289 288
255 256 257 259 260 262 263 264 264 264 264 265 266 266 267 267 267 268 271 275 276 278 279 280 281 281 282 282 283 284 284 285 285 285 285 284 284 285 286 287 288 289 289 288 289 289 290 290 290 290 289 289 290 290 290 290 290 290 291 291 291 290 291 291 290 291 291 291 291 290 290 290 289 289 288 288 288 288 288 288 289 289 289 288 287
255 256 257 259 260 261 262 263 263 263 264 265 265 266 266 267 268 269 269 270 272 275 277 279 279 280 280 281 282 284 285 285 285 285 285 285 285 285 286 286 287 288 288 287 288 289 289 289 290 290 290 290 290 290 290 290 290 291 291 291 291 291 291 290 290 291 291 291 291 290 289 290 289 289 289 288 288 288 288 288 289 289 289 288 287
256 257 259 260 260 260 261 261 262 262 263 264 265 266 266 268 269 269 269 269 270 271 272 274 277 278 278 280 282 284 283 283 283 284 285 285 285 286 286 285 285 285 286 287 287 288 289 289 289 289 290 290 290 290 290 290 290 290 291 291 291 290 290 290 291 291 291 291 291 290 290 289 289 289 289 288 288 288 288 288 289 289 289 288 287
255 256 258 259 259 259 260 260 261 262 263 264 265 266 267 268 268 268 269 270 270 270 271 273 274 277 278 280 281 281 281 282 282 283 284 285 285 286 284 284 284 285 285 286 287 287 288 289 290 290 290 290 290 290 291 290 290 291 291 291 290 290 290 290 290 290 290 291 290 290 289 289 289 289 289 289 288 288 288 288 289 289 289 288 288
255 256 257 258 258 259 260 260 261 262 264 264 265 266 266 267 267 268 268 268 269 270 270 271 273 274 276 278 279 279 279 279 280 282 285 285 286 286 285 285 284 285 285 286 286 287 287 288 289 290 290 290 290 291 290 291 290 290 289 291 291 290 290 290 291 290 290 290 290 289 289 289 289 289 289 288 288 289 289 288 289 288 288 288 287
255 256 256 257 258 259 259 260 261 262 263 264 265 265 265 265 266 267 267 267 268 268 269 270 272 272 272 274 276 276 276 277 279 282 285 285 285 285 285 285 285 285 285 286 286 286 287 288 289 289 289 289 289 289 290 291 291 291 290 290 290 290 289 290 289 290 290 291 290 289 289 289 289 289 289 289 289 288 288 288 289 288 288 287 287
255 257 258 258 259 258 259 259 260 261 262 263 263 263 264 264 264 265 265 266 266 267 268 269 270 271 271 272 272 274 273 273 275 278 282 284 285 285 285 285 285 285 285 286 286 286 287 287 288 289 288 289 290 289 290 290 290 290 290 290 290 290 289 290 290 290 290 290 290 290 290 290 289 290 289 289 289 289 288 288 288 288 288 287 287
255 255 256 258 257 258 259 259 260 261 262 262 261 262 262 263 263 263 264 264 265 266 267 268 268 269 270 270 270 270 269 271 274 278 280 283 285 285 285 285 285 285 285 285 286 286 286 287 288 288 289 288 289 290 290 290 290 290 290 290 290 290 290 290 290 290 290 290 290 290 290 289 289 289 289 290 289 289 288 288 288 289 289 288 288
254 254 256 256 257 257 258 259 259 260 260 260 261 261 261 262 263 263 263 264 265 265 266 267 267 267 268 269 270 270 269 270 273 275 277 279 281 284 285 285 285 285 286 286 286 286 286 287 287 288 288 288 289 289 289 290 290 290 290 290 290 290 290 290 290 290 290 290 290 289 290 289 289 289 289 289 288 289 289 289 289 289 288 288 287
253 253 254 255 256 256 257 258 258 259 259 260 260 260 261 261 262 262 263 263 264 265 265 265 265 266 267 268 268 269 269 270 271 272 274 276 278 279 282 285 285 286 286 286 286 286 286 287 287 288 288 287 288 288 289 289 289 290 290 290 289 289 289 290 290 290 290 290 290 289 289 289 289 289 289 288 289 289 289 288 289 288 288 287 287
253 254 254 255 255 256 256 257 257 257 258 258 259 260 261 261 261 262 262 263 263 263 263 263 264 265 265 266 267 268 267 268 269 270 271 273 274 276 277 279 282 285 286 286 286 286 286 286 287 288 288 287 288 288 289 289 289 289 290 289 289 289 289 289 289 289 290 290 290 289 289 289 289 289 289 289 289 289 288 288 288 288 287 287 287
253 253 254 255 255 255 256 256 256 257 257 258 259 259 260 260 260 261 261 261 262 262 262 262 263 263 263 264 265 265 265 266 266 267 269 270 271 272 273 275 277 280 284 286 286 286 286 286 286 287 287 287 288 288 288 289 289 289 289 289 289 288 289 289 289 289 290 290 289 289 289 289 289 289 288 288 288 288 288 288 287 287 287 287 286
252 253 253 253 254 254 254 255 255 256 257 257 257 258 259 259 259 260 260 260 261 261 261 261 262 262 262 262 263 263 264 264 266 266 267 268 268 269 270 271 273 275 279 284 286 286 286 286 287 286 286 287 287 287 288 289 289 289 289 289 289 289 289 289 289 290 290 290 289 289 289 289 289 289 288 288 288 288 288 287 287 287 287 286 286
252 253 253 253 253 254 254 254 255 255 255 256 256 256 257 257 258 258 259 259 259 259 260 260 260 261 261 261 262 263 263 264 264 265 266 266 267 267 268 269 270 272 275 278 283 286 286 286 286 286 286 286 287 287 287 287 288 289 289 289 290 289 289 289 289 289 289 289 289 289 289 289 289 289 288 288 288 288 288 288 287 287 287 286 286
252 252 253 253 253 253 254 254 253 254 254 254 255 255 255 256 257 257 258 258 258 258 258 259 259 259 260 261 261 262 262 263 263 264 265 265 266 266 266 267 268 270 272 275 279 283 286 286 286 286 286 287 287 287 287 287 287 287 288 289 289 289 289 289 289 289 289 289 289 289 289 289 288 288 288 288 288 288 287 287 287 287 287 287 286
252 252 252 253 252 252 252 252 253 254 253 254 254 255 255 255 255 256 256 256 256 257 257 257 258 258 259 260 261 261 262 262 263 264 264 264 265 265 266 266 267 268 270 272 275 278 281 285 286 286 286 286 286 286 286 287 287 287 287 288 288 289 288 288 289 289 289 289 289 289 289 289 288 288 288 288 288 288 287 287 287 287 287 286 286
251 251 251 252 252 252 252 252 252 252 252 253 253 253 254 254 254 255 255 255 256 256 256 256 257 258 258 259 260 260 261 262 262 263 263 264 264 264 265 266 267 267 268 270 272 274 276 280 284 286 286 286 286 286 286 286 286 287 287 287 287 286 287 288 288 289 288 289 289 289 289 289 288 288 288 288 288 288 288 287 287 286 286 286 285
251 251 251 251 251 251 252 252 252 251 252 252 252 252 253 253 253 254 255 255 255 255 256 256 256 257 257 258 259 259 260 261 261 262 262 263 263 264 264 265 265 266 267 268 270 271 274 276 279 282 285 286 286 286 286 286 286 286 286 287 286 286 287 287 287 287 288 289 288 289 289 288 288 288 288 288 287 287 287 287 287 286 286 286 285
251 251 251 251 251 251 251 251 251 252 252 252 252 252 252 252 253 253 254 254 254 255 255 256 256 257 257 257 258 259 259 260 261 261 262 262 263 263 264 264 264 265 266 267 268 270 271 273 275 278 280 284 286 286 286 286 286 286 286 285 285 285 286 287 287 287 288 287 288 289 288 288 287 287 287 287 287 287 287 286 286 286 286 285 285
Wind_Speed
7 7 7 8 8 9 9 9 9 8 7 7 7 7 8 9 9 9 9 9 8 8 10 10 9 9 10 10 11 11 10 9 9 11 12 13 13 13 13 13 15 14 13 13 12 11 12 13 13 12 10 10 9 9 8 8 8 8 7 7 8 7 8 8 9 7 3 1 4 4 4 6 3 4 4 4 4 2 3 3 2 2 2 3 4
7 9 7 8 8 9 10 9 8 8 8 7 6 7 7 8 8 9 9 9 8 9 9 8 8 9 9 10 11 11 11 12 10 9 11 12 13 11 13 14 15 15 13 13 13 11 11 13 13 12 11 12 11 10 10 9 9 9 9 9 9 8 7 8 8 7 9 2 2 3 3 3 3 2 4 5 3 3 3 2 3 2 3 3 3
6 7 8 9 9 9 9 8 8 9 10 9 7 7 7 8 8 10 10 9 8 8 8 8 8 9 9 9 8 9 11 11 11 11 10 10 10 10 11 13 15 15 15 15 13 10 10 11 12 11 9 12 12 11 9 9 9 11 11 9 9 8 7 8 7 8 8 7 4 5 5 2 4 3 4 4 4 3 3 2 1 2 2 1 2
6 7 7 9 9 9 9 8 9 9 9 9 9 8 7 7 7 9 10 9 10 8 8 9 8 8 10 11 11 11 11 11 11 12 13 12 12 11 9 10 12 14 15 14 13 12 13 12 11 11 11 13 12 10 9 9 10 10 11 9 9 9 8 7 8 7 7 8 4 6 3 5 2 4 4 4 4 4 2 1 2 2 2 2 2
6 6 7 9 9 8 8 8 9 10 10 9 10 10 8 7 7 8 9 10 10 9 9 7 8 8 9 8 8 9 10 10 11 11 11 11 12 13 12 11 10 11 11 11 12 13 13 13 13 12 12 13 12 11 10 12 11 10 11 9 9 9 7 8 8 7 7 9 5 2 3 2 2 2 2 5 2 3 2 1 1 2 2 1 2
6 7 7 7 8 9 8 8 9 10 11 10 11 11 10 8 8 7 8 9 10 10 10 9 8 9 9 9 8 8 8 9 10 11 12 12 12 12 12 12 13 12 11 11 12 12 13 14 13 13 13 14 13 12 11 13 11 11 11 10 9 7 9 7 7 8 8 7 7 3 1 5 2 2 0 3 6 3 2 0 1 2 1 1 4
7 8 8 7 7 7 8 8 9 9 9 10 11 11 11 10 9 8 7 9 10 10 10 10 9 9 8 8 8 7 7 7 9 9 10 12 12 13 12 12 13 13 13 13 13 13 13 13 13 14 15 14 14 14 13 12 12 12 12 11 9 9 9 8 8 8 8 7 4 5 6 2 3 5 1 1 3 3 5 3 1 1 1 3 4
7 8 8 8 7 8 7 7 8 8 8 9 10 11 11 11 11 10 8 8 9 10 11 11 10 8 8 8 8 8 8 8 9 10 10 11 11 12 12 12 12 12 12 13 13 13 14 14 14 14 15 15 15 14 14 13 11 11 10 10 10 10 10 8 7 8 8 7 8 7 4 5 1 2 2 3 3 0 2 3 5 3 1 4 3
6 6 7 8 8 8 8 7 6 7 8 9 9 10 11 11 11 11 10 9 8 9 10 11 11 11 9 8 8 8 8 9 8 9 9 10 9 10 11 12 12 12 12 12 13 13 13 13 14 14 16 17 19 16 15 14 12 12 11 11 11 11 9 8 8 8 7 8 7 5 6 6 7 7 5 5 6 7 5 3 2 3 4 5 3
4 6 7 7 8 9 9 9 8 7 7 8 9 10 10 11 11 11 10 9 9 9 9 9 10 10 10 9 8 8 8 7 9 15 13 9 8 8 9 10 10 11 11 12 12 13 13 12 13 19 18 18 18 19 18 18 18 14 13 13 12 11 11 10 10 9 9 10 10 9 9 9 8 8 7 4 3 4 5 4 4 3 5 5 3
5 4 6 7 8 8 9 9 10 9 8 7 7 9 11 11 11 11 10 10 9 8 8 10 9 9 9 9 9 8 7 7 12 14 15 16 11 9 9 9 9 10 11 12 12 12 11 12 11 14 17 17 17 20 19 20 19 18 17 18 16 15 13 12 11 10 10 10 9 9 10 9 8 6 7 6 4 7 7 5 6 6 5 6 4
5 7 6 6 6 8 8 9 10 10 9 9 8 8 9 10 11 10 10 10 10 9 9 9 9 10 9 9 9 8 7 9 13 14 14 15 14 11 9 9 10 11 11 12 11 10 11 11 10 9 10 13 13 15 18 20 19 19 18 18 18 18 17 16 13 11 10 10 10 11 10 11 9 7 7 8 8 7 5 6 5 6 6 5 4
5 6 7 7 7 7 7 9 10 10 10 10 9 9 9 10 10 10 10 10 10 10 9 9 9 9 10 10 10 9 8 10 12 13 14 15 16 14 10 10 10 10 11 11 11 11 10 10 10 9 8 14 14 13 13 14 17 20 19 19 19 19 17 16 15 15 13 11 10 10 12 10 9 10 10 9 8 8 6 6 5 6 5 6 5
4 6 6 7 8 8 7 7 9 9 9 10 10 9 9 10 10 9 9 9 10 10 9 10 10 10 9 10 10 9 9 10 13 13 12 14 15 14 9 10 10 10 10 11 11 11 12 11 11 11 8 9 11 12 12 12 12 12 11 11 11 14 15 17 16 14 11 11 11 12 9 9 11 8 8 10 11 10 9 7 7 6 6 6 4
6 6 7 7 8 9 10 9 9 9 9 10 10 10 9 10 10 9 9 9 10 10 11 10 10 10 10 10 10 10 9 12 13 14 13 14 15 13 9 9 10 9 9 9 10 11 11 11 11 11 9 10 11 13 13 12 12 12 11 11 11 11 11 10 10 9 9 8 8 7 8 8 7 8 9 9 11 10 10 9 10 7 6 5 6
6 7 8 8 8 8 9 10 11 10 9 9 10 11 10 10 11 10 9 9 9 9 9 8 9 10 10 11 10 11 10 14 15 14 14 13 15 10 9 10 10 10 9 8 8 9 9 11 11 11 11 10 13 18 16 12 12 13 13 12 10 9 10 9 10 8 7 6 6 7 8 8 10 9 10 10 8 6 6 6 7 7 8 5 5
5 7 8 9 9 9 9 10 11 11 10 10 10 10 11 12 11 9 10 10 10 10 10 9 8 9 10 10 11 11 10 12 15 15 14 15 12 8 8 9 9 10 10 8 8 8 9 9 10 10 10 10 14 18 18 17 12 13 13 12 10 9 9 6 10 11 10 11 12 13 14 14 14 14 15 15 11 10 9 8 8 9 8 6 3
6 7 8 9 9 10 9 9 10 11 11 11 11 11 10 10 10 9 9 11 11 11 10 10 8 8 9 10 10 11 12 13 15 14 14 15 12 9 8 9 10 10 9 8 7 8 9 14 12 10 10 10 15 19 19 17 14 14 13 13 12 12 9 6 6 7 11 12 13 14 15 15 14 14 16 16 17 14 12 11 10 9 8 8 6
8 9 9 9 9 9 9 9 9 10 11 11 10 11 11 10 11 10 9 9 10 10 10 9 9 8 8 10 12 12 11 12 16 18 15 14 12 8 8 8 9 9 8 8 7 7 7 10 14 13 11 10 17 19 20 18 13 13 13 13 13 13 12 10 11 10 8 8 7 8 7 10 9 9 11 18 18 14 10 9 9 10 9 7 7
8 8 9 9 8 9 8 9 9 10 12 12 10 10 9 11 10 11 11 9 9 9 9 9 10 9 8 9 10 10 10 11 12 17 17 15 15 10 7 8 9 9 8 8 8 7 8 8 11 15 15 14 17 20 20 21 15 12 11 13 14 15 10 10 10 10 10 11 8 8 8 6 5 6 8 10 11 10 8 9 10 9 10 9 8
9 9 9 10 9 9 8 8 11 11 10 11 11 11 9 10 11 11 11 10 10 10 10 10 9 9 8 8 9 9 9 10 11 15 17 17 15 12 8 9 8 8 8 8 8 8 8 8 8 12 15 15 18 20 21 21 18 12 13 13 13 10 11 10 10 14 10 8 8 7 8 6 6 6 7 8 8 6 6 8 8 7 9 10 8
9 10 11 10 10 9 9 9 9 9 9 10 12 12 11 10 10 10 10 10 12 11 10 9 9 9 8 8 9 10 10 11 10 13 16 17 17 15 10 9 8 8 9 8 8 8 9 8 8 12 16 15 18 20 21 20 21 11 12 13 11 13 12 9 8 9 8 7 7 7 7 6 6 6 7 7 7 7 6 8 8 7 7 9 11
9 9 9 9 10 10 10 10 10 9 10 11 12 12 11 11 11 10 10 10 11 11 10 9 9 9 9 8 8 9 10 9 11 10 13 16 16 16 15 12 13 11 10 9 9 8 7 8 10 17 19 17 18 20 21 22 19 13 14 14 13 15 12 8 8 9 8 8 8 8 8 7 7 7 7 7 7 6 6 6 6 5 5 4 3
9 9 9 9 10 10 10 10 10 9 9 11 11 11 11 11 10 9 10 10 10 10 9 8 8 9 9 10 9 9 9 9 9 11 11 14 14 16 16 16 16 12 10 8 6 7 8 8 10 17 18 18 19 19 20 20 15 18 15 15 15 14 9 8 9 9 8 8 9 9 9 8 7 7 7 8 8 7 6 5 5 5 6 6 5
9 9 9 9 9 9 9 8 9 9 9 9 10 10 11 10 11 11 10 10 10 9 10 9 8 8 9 9 9 9 10 10 10 10 12 12 14 14 16 16 16 18 13 9 5 7 9 13 16 18 18 18 19 19 18 21 22 19 16 15 15 10 9 9 9 8 10 10 10 9 9 9 9 8 7 7 7 7 7 5 5 6 7 8 8
9 8 8 8 9 9 9 9 8 9 9 8 8 8 9 10 10 10 10 9 9 10 10 9 9 9 9 9 9 9 10 11 11 10 8 8 9 12 14 15 15 16 14 11 11 11 14 17 19 19 17 16 14 11 9 11 17 19 18 16 11 9 9 10 9 11 11 10 10 10 9 7 6 7 8 9 9 9 8 8 8 6 7 8 8
8 8 9 9 8 8 9 9 10 9 8 8 7 7 8 8 8 9 9 10 9 9 9 10 10 10 10 10 10 9 9 9 10 10 8 7 7 8 8 8 11 12 9 8 9 9 12 15 11 12 11 15 16 14 13 13 13 13 8 8 8 8 10 11 11 11 10 8 8 6 6 6 6 8 8 9 8 7 7 9 9 8 7 6 8
8 9 10 8 8 8 8 12 12 9 9 9 10 10 8 7 8 9 9 9 10 10 9 10 10 10 8 9 10 10 9 9 9 10 9 10 10 10 8 7 6 5 6 7 6 7 7 8 10 8 8 9 9 7 7 8 9 9 8 8 8 8 10 11 9 7 6 6 5 6 7 7 9 8 8 8 8 8 7 8 10 9 7 8 7
8 8 8 8 8 9 8 9 9 10 10 10 8 8 10 9 9 11 8 6 8 9 11 10 10 10 9 9 12 11 9 8 9 11 15 18 15 11 9 8 6 5 8 9 5 4 4 6 6 7 8 9 8 8 7 7 7 8 9 9 8 8 8 8 10 10 9 8 9 9 9 8 8 8 8 8 7 8 6 6 7 11 7 5 8
7 7 8 8 8 9 8 8 9 9 9 10 13 12 8 11 12 10 12 12 14 18 17 12 13 11 9 9 8 9 11 12 17 21 21 21 21 19 16 15 14 10 9 11 8 4 5 6 7 8 8 8 9 9 9 8 8 9 9 10 8 8 8 8 8 9 8 9 9 10 10 10 9 9 9 8 7 7 7 9 8 8 10 7 8
7 7 7 7 9 9 9 8 8 8 8 9 9 12 16 11 7 13 16 15 18 20 20 22 22 18 13 11 11 14 16 18 18 19 21 21 19 16 15 14 13 13 11 7 7 6 5 6 6 7 8 8 9 9 9 9 9 9 9 9 7 9 9 9 8 7 8 8 9 9 10 10 10 9 10 9 9 8 7 4 7 9 8 9 9
7 7 7 7 9 10 9 9 10 10 9 9 9 10 10 14 18 8 7 15 18 18 19 19 19 20 22 18 15 12 13 14 16 18 19 21 20 18 15 15 13 13 13 10 7 6 6 6 6 6 7 7 8 8 9 10 9 10 9 10 9 8 10 10 9 9 9 9 9 9 10 10 10 10 9 9 9 9 9 8 7 8 6 6 8
7 7 7 7 8 9 8 9 9 9 10 11 10 9 10 10 11 18 19 11 12 17 17 15 18 21 23 22 22 18 17 16 18 19 18 18 19 17 15 15 14 12 12 8 6 6 5 6 6 6 7 7 7 8 8 9 10 10 10 11 10 10 10 10 10 10 10 10 10 9 9 9 9 9 9 9 10 10 10 9 9 8 8 8 7
7 6 7 8 8 7 8 8 8 9 9 9 9 9 9 9 10 11 13 18 18 10 7 12 18 22 22 23 22 20 18 20 21 21 20 17 17 15 12 8 10 10 9 7 6 6 5 6 6 6 7 6 6 7 7 8 9 10 9 10 10 10 11 8 9 10 9 10 10 9 9 9 9 10 9 9 8 9 10 9 9 9 8 9 10
7 9 13 11 7 8 8 8 8 8 9 9 9 10 10 9 10 10 11 13 13 15 16 14 12 15 17 17 18 21 22 23 24 24 23 18 14 13 10 6 5 3 4 5 6 6 5 5 5 5 5 7 7 7 8 8 8 8 9 10 8 8 9 9 10 9 10 10 10 10 10 10 10 10 11 10 9 9 9 10 9 10 10 9 9
7 7 7 8 8 7 7 8 8 8 9 9 9 10 10 11 11 9 10 10 10 13 14 13 13 15 21 19 20 23 24 25 24 24 23 16 12 9 3 4 4 4 4 4 4 5 5 5 5 6 6 6 5 7 7 8 8 8 9 10 10 10 9 9 9 10 9 9 9 10 10 9 10 9 8 10 11 11 10 10 10 10 10 10 10
7 6 7 7 8 8 8 8 8 9 10 10 10 9 9 9 9 10 9 9 11 11 11 13 14 15 13 11 18 23 25 26 25 22 18 11 11 5 4 3 3 4 4 3 3 4 5 5 4 4 6 7 7 7 6 7 8 8 8 9 10 11 10 9 9 9 10 9 8 9 11 10 10 10 11 10 9 9 10 10 10 10 10 11 11
7 7 7 8 8 8 8 7 9 12 9 9 8 9 9 9 9 10 10 10 11 11 12 12 12 11 13 14 18 14 18 22 21 14 9 5 5 4 4 4 3 4 4 4 3 3 4 5 4 4 5 5 6 6 7 7 8 8 9 8 8 9 13 12 12 12 11 10 10 9 9 9 10 10 9 11 11 10 10 10 10 10 8 11 10
6 11 15 15 11 8 7 8 8 8 8 8 9 9 10 10 10 9 9 9 9 10 10 10 9 11 11 12 13 15 18 14 13 11 11 9 5 4 5 5 4 4 4 4 4 4 4 4 4 5 3 4 6 6 6 6 6 7 7 7 8 8 10 9 10 10 9 9 9 9 10 9 9 9 10 10 10 11 11 11 10 11 11 11 10
8 8 10 14 9 9 9 8 8 8 9 9 9 9 9 9 9 10 10 10 11 10 9 10 10 10 11 12 13 15 14 13 12 12 11 12 9 6 5 5 5 5 4 4 3 4 4 4 4 4 4 3 4 6 6 6 6 6 6 7 8 9 10 9 9 10 10 9 10 10 10 10 10 9 9 9 9 10 11 11 11 11 11 11 10
7 8 8 9 11 9 8 8 8 8 8 9 9 9 9 10 10 10 10 10 11 11 10 9 9 11 11 15 23 22 14 12 12 12 11 11 12 12 7 5 5 5 5 4 4 4 4 5 4 4 4 3 3 4 5 6 7 7 7 6 6 7 8 9 10 10 10 10 10 10 9 9 10 10 10 9 9 9 9 9 10 9 9 8 10
8 7 7 7 8 7 7 9 8 10 9 9 8 9 9 9 9 9 11 11 11 11 11 10 10 10 14 24 22 25 14 10 11 12 12 12 11 13 13 9 6 5 5 4 4 4 4 4 4 5 4 3 3 4 4 5 6 7 7 7 7 6 7 8 9 9 10 10 10 10 10 11 11 11 11 10 9 9 8 8 8 9 9 9 9
8 7 7 8 7 7 8 8 8 8 8 9 9 9 10 10 9 10 10 11 11 11 11 11 11 11 13 18 20 21 11 10 11 12 11 11 12 13 13 14 13 9 5 5 4 4 4 3 4 4 4 4 3 3 4 5 5 5 6 7 8 7 7 6 7 8 8 8 9 11 11 10 10 9 9 9 9 9 9 10 9 9 9 9 10
7 7 8 7 7 7 7 6 8 8 8 11 11 10 9 9 9 9 9 10 11 11 11 11 11 12 12 13 14 12 11 11 11 11 12 12 11 12 13 13 14 14 11 6 4 4 4 4 4 4 3 4 4 3 3 4 5 5 5 6 7 7 7 7 8 8 8 8 8 9 10 10 10 9 9 9 9 10 9 9 10 10 10 9 10
6 7 7 7 7 7 7 7 7 8 10 9 8 9 9 9 9 9 10 10 11 11 11 11 11 11 12 12 12 12 12 11 12 12 12 12 12 12 12 13 14 14 13 12 7 4 4 4 4 3 3 2 1 3 4 4 4 5 5 6 6 7 7 8 8 8 8 9 8 9 9 10 11 10 9 10 10 11 10 11 11 10 10 10 11
7 7 8 7 8 8 8 7 9 7 7 8 9 8 8 9 9 9 10 10 11 11 11 11 11 11 11 11 12 12 12 12 11 11 12 11 11 12 12 12 13 14 13 12 11 8 5 4 4 4 3 3 2 1 2 2 3 4 6 6 6 5 5 6 6 7 8 9 9 9 9 9 10 10 12 11 10 10 10 11 11 11 12 12 11
7 6 7 7 7 8 8 9 7 8 7 8 8 8 8 8 8 9 10 12 12 11 10 10 11 11 11 11 11 12 12 12 11 11 12 12 12 12 12 13 13 13 13 13 12 12 7 4 4 3 4 4 2 2 2 2 2 2 3 5 5 6 6 6 6 7 7 8 8 8 9 9 9 9 11 11 10 10 11 11 12 13 11 11 11
6 7 7 7 7 7 8 8 9 10 8 8 8 8 8 8 8 8 8 9 9 10 10 10 10 10 11 11 11 11 11 11 11 11 11 11 11 11 12 13 13 13 13 13 12 12 13 8 4 4 3 2 3 3 2 1 1 2 3 3 4 5 7 8 7 7 7 7 8 9 9 9 9 9 10 11 12 11 11 10 9 9 10 10 10
7 7 7 7 7 7 8 8 8 8 8 8 8 8 8 8 8 8 8 8 9 9 9 9 10 10 10 11 11 11 11 12 11 11 11 11 11 11 11 12 13 13 12 12 12 12 12 12 10 5 3 3 2 2 2 2 2 1 2 2 5 10 11 11 8 8 9 8 8 8 8 9 10 10 11 10 10 11 11 11 11 11 9 9 10
7 7 7 7 7 7 8 7 7 7 8 7 7 8 8 8 8 9 9 9 9 9 9 9 9 9 10 10 12 11 11 11 12 11 11 11 11 11 11 12 12 12 11 12 12 11 11 11 12 11 6 3 3 3 3 2 2 2 2 2 5 9 12 12 10 11 11 7 8 8 9 9 9 9 9 10 10 11 10 11 12 11 11 12 12
7 7 7 7 7 7 7 7 8 8 8 8 8 8 8 8 8 8 8 9 9 10 9 9 9 9 9 9 10 10 10 11 11 11 11 11 11 11 11 12 12 11 12 12 11 11 11 11 11 11 11 9 4 3 3 3 3 2 3 4 6 8 10 11 10 11 12 8 8 8 8 9 10 10 10 10 10 11 12 12 11 11 11 11 11
Wind_Direction
336 331 327 324 321 317 314 314 306 299 301 302 301 295 293 291 289 283 281 274 267 259 256 256 254 251 246 240 239 240 238 231 221 216 215 218 219 218 217 215 216 218 219 220 215 208 204 203 201 199 185 190 195 195 198 196 196 202 196 191 200 196 182 191 214 218 262 141 139 153 146 124 140 164 167 136 106 85 78 71 80 56 348 310 298
340 328 327 321 319 314 313 310 308 311 307 302 302 303 303 302 297 294 286 281 274 268 262 256 250 248 244 238 235 233 234 235 231 223 218 216 218 216 215 214 218 220 216 218 212 209 203 202 203 196 190 198 196 199 196 190 195 197 198 195 201 200 194 188 211 195 210 252 144 132 130 141 138 200 139 121 110 78 56 55 61 5 292 273 296
329 327 323 323 317 315 313 312 318 322 318 311 306 308 310 308 308 302 297 290 281 275 274 267 259 253 252 246 238 234 231 232 232 232 230 224 219 216 216 214 215 215 215 215 210 204 202 203 201 195 195 202 204 204 195 195 193 197 199 195 201 202 198 198 176 201 195 220 194 171 171 159 158 155 116 120 128 122 98 59 43 292 273 322 327
327 325 321 316 315 314 314 314 321 323 321 316 311 308 306 307 308 307 302 298 290 281 274 272 267 259 254 249 241 236 231 228 228 231 234 233 232 227 219 217 216 214 212 210 204 201 204 204 203 197 197 205 205 202 199 195 195 198 197 198 198 202 201 193 195 182 186 193 234 176 189 142 68 100 117 115 122 103 103 58 5 320 329 19 25
326 321 319 317 316 317 316 324 328 325 321 317 314 311 307 305 303 301 302 302 299 291 282 273 270 265 259 252 244 235 229 226 228 231 233 233 233 232 227 222 219 216 212 207 202 203 204 206 202 197 198 203 202 201 194 197 197 195 198 197 198 199 197 193 193 176 167 193 199 216 130 82 102 102 119 128 89 88 72 58 310 293 305 49 63
327 324 322 319 318 321 324 331 329 323 319 318 317 312 307 303 303 305 306 303 300 297 291 280 269 267 264 258 249 242 233 229 229 231 232 231 232 231 229 227 223 219 215 211 206 205 207 209 205 200 200 201 201 200 195 198 194 196 197 197 196 191 194 193 183 181 180 186 169 166 201 147 102 109 271 157 148 126 71 5 348 323 296 80 47
327 328 324 320 318 320 326 327 323 318 319 320 318 314 312 311 309 306 308 308 307 303 297 291 278 267 263 260 253 245 241 237 236 235 234 231 230 229 229 228 224 220 218 213 211 210 211 210 208 205 204 203 202 201 198 197 197 199 197 195 193 191 190 187 178 179 183 177 187 174 173 230 141 171 240 104 111 139 149 137 131 299 337 85 70
331 326 327 325 323 322 321 318 316 316 319 319 318 316 315 316 315 310 307 303 302 301 300 296 290 277 269 263 258 251 247 246 244 241 235 230 227 227 226 226 226 223 220 217 215 214 212 212 211 209 208 206 204 205 200 199 194 199 195 191 190 188 191 181 178 178 179 185 187 182 173 157 119 69 120 102 89 95 174 146 166 199 125 53 68
328 324 323 324 322 324 320 316 314 317 320 321 321 320 319 316 312 309 303 302 299 298 296 297 295 290 280 271 264 252 247 245 243 239 235 230 223 224 223 225 226 225 224 221 218 215 212 212 212 212 210 209 205 203 201 194 191 194 193 189 187 188 186 185 184 182 185 185 193 168 166 169 180 161 164 178 188 183 186 156 142 198 141 92 41
323 322 320 317 320 322 322 318 317 318 320 321 323 321 318 314 310 308 305 300 298 296 294 290 291 290 286 278 269 257 248 246 240 238 230 224 221 222 223 225 225 225 225 226 225 222 215 212 214 210 207 205 202 201 199 196 197 195 187 185 184 185 185 183 187 190 189 192 197 181 182 197 193 188 178 197 171 136 127 155 140 175 100 91 73
327 317 312 313 317 321 323 324 323 322 318 317 320 322 319 316 310 305 304 304 304 309 308 307 301 295 290 282 275 265 256 247 240 235 234 226 218 218 220 225 226 227 229 226 227 223 222 217 215 207 206 203 201 198 197 197 195 196 191 190 186 182 180 185 192 187 190 198 189 180 195 201 200 183 180 173 173 159 171 174 152 144 144 134 151
328 318 310 310 316 321 323 323 323 321 322 321 322 321 317 312 308 307 310 312 309 308 304 299 301 299 295 292 284 277 268 256 245 239 231 227 220 218 219 221 222 227 228 229 229 224 222 221 218 209 202 201 195 196 197 195 193 193 189 190 192 193 188 183 180 185 191 192 187 197 190 205 188 178 179 168 173 161 170 170 161 158 151 144 144
322 312 312 319 321 319 322 322 321 322 322 321 319 319 316 312 310 312 314 312 311 309 308 309 304 299 294 294 290 283 280 267 260 247 235 226 223 219 224 218 219 224 225 225 226 224 221 220 220 214 205 192 188 191 191 195 195 193 190 191 193 193 197 200 192 186 183 189 191 192 198 185 173 196 182 173 150 162 164 177 164 157 157 147 167
319 311 317 324 321 322 320 318 318 318 320 321 320 318 316 310 307 307 309 312 310 307 311 311 308 305 300 294 290 287 278 281 272 263 247 232 225 220 227 225 223 223 224 222 223 223 220 219 218 216 199 185 192 188 188 188 189 193 191 191 195 201 198 196 197 198 188 189 186 198 193 167 193 178 173 153 157 168 171 181 164 159 164 162 151
326 326 327 322 323 325 323 321 318 318 321 322 321 316 311 308 309 312 312 312 313 313 316 317 312 307 303 296 294 290 285 280 274 267 255 238 231 225 230 232 232 229 224 221 220 220 219 219 217 214 199 187 192 188 186 187 185 188 186 190 194 195 197 196 192 187 187 196 194 183 168 175 162 157 169 170 170 173 177 176 169 152 123 102 71
332 333 328 325 326 324 323 319 317 317 319 320 318 316 316 313 312 314 310 307 301 299 300 301 302 304 305 304 297 289 284 280 275 272 261 247 233 228 230 231 233 232 226 221 217 217 217 215 214 211 200 193 192 189 188 180 183 187 189 191 192 193 201 202 185 178 176 170 163 160 166 163 159 166 175 173 159 132 108 94 106 119 127 129 132
334 332 325 324 324 324 323 317 314 317 318 319 318 318 320 316 312 311 307 307 307 305 304 304 305 304 303 302 300 293 289 279 274 271 265 253 241 235 230 230 232 229 225 217 213 213 212 210 210 209 200 197 190 189 188 177 188 190 191 191 192 188 200 197 185 170 160 151 151 156 159 168 171 173 173 158 150 144 127 132 156 152 145 146 136
336 329 322 322 321 321 318 316 316 316 318 319 318 316 312 306 304 308 306 308 307 307 303 301 299 298 299 300 298 300 298 296 290 278 262 253 240 236 229 227 229 226 226 214 206 209 210 206 204 205 201 197 184 190 188 182 191 192 190 190 191 198 196 179 169 177 161 154 152 156 168 175 169 167 164 156 150 147 152 168 169 154 160 161 151
336 330 325 321 319 317 316 318 318 317 317 314 314 312 311 309 307 305 300 297 295 298 299 297 298 300 300 296 295 291 290 291 288 290 282 264 249 238 235 229 230 226 217 216 205 199 203 203 205 206 204 187 183 191 190 187 194 191 192 189 195 199 195 178 179 166 164 161 158 137 139 156 160 158 165 157 158 162 164 158 162 163 160 159 138
328 322 319 320 319 318 319 321 321 322 318 313 311 309 309 310 307 308 305 298 295 295 294 295 296 301 304 298 292 290 291 288 287 283 280 274 257 242 235 235 232 228 219 211 205 201 198 193 201 207 204 186 184 190 193 193 194 194 188 195 195 203 182 183 184 174 177 181 170 155 145 138 142 146 151 159 165 167 156 158 169 165 154 155 161
328 325 323 322 321 321 324 327 324 321 316 314 314 312 314 311 309 308 305 304 300 297 299 300 299 299 303 301 295 290 285 285 286 283 283 277 265 245 242 240 243 232 227 215 203 200 194 193 180 196 200 189 186 192 195 197 199 193 196 199 201 188 163 177 178 177 174 164 156 152 142 141 154 154 158 165 171 169 153 164 172 173 157 155 161
332 330 327 325 324 325 328 326 323 317 316 318 319 314 313 306 303 305 306 304 301 301 303 302 302 305 313 313 306 298 289 282 281 284 280 278 273 252 242 248 247 246 237 225 209 205 194 184 177 186 194 190 188 192 196 198 202 199 202 200 185 162 169 168 164 165 163 162 158 151 150 156 161 166 166 170 172 172 160 167 174 173 174 166 163
329 324 322 324 328 327 325 324 324 323 318 319 318 313 312 314 313 312 309 308 306 304 305 310 314 317 320 317 313 305 301 294 284 285 284 281 274 262 248 244 253 252 241 231 219 205 190 180 177 178 190 189 189 192 194 196 200 205 198 189 177 160 151 154 161 169 166 166 161 164 165 168 167 171 168 170 173 166 150 140 137 126 106 71 63
331 328 326 325 324 323 319 320 321 315 317 320 318 313 314 315 313 316 318 313 310 309 311 314 316 320 325 323 319 312 308 305 295 288 288 285 279 268 257 246 242 245 251 249 230 202 189 181 170 176 187 186 189 194 194 193 197 201 192 185 164 158 151 153 169 173 168 166 172 174 178 178 169 164 175 169 162 154 128 117 110 107 102 90 79
333 328 328 324 320 314 312 318 320 318 318 316 315 316 315 319 318 320 322 319 316 315 315 316 317 322 325 321 320 321 321 315 306 295 290 288 284 277 268 257 247 244 246 256 256 219 191 175 172 179 186 182 187 193 195 195 195 194 189 172 162 162 163 167 174 168 173 182 186 183 178 183 178 168 154 137 124 115 110 94 86 88 91 91 80
333 330 325 320 315 313 318 320 319 317 315 315 313 309 308 313 314 315 319 317 319 318 316 318 320 322 318 316 315 315 316 313 308 304 299 297 293 286 278 271 260 251 244 244 261 250 196 178 181 186 182 180 184 189 191 191 191 191 188 171 170 167 165 170 173 179 187 183 183 183 178 159 158 149 138 138 146 153 144 138 128 119 121 115 96
329 327 324 318 316 322 326 326 325 324 320 318 313 309 308 307 307 309 311 313 313 313 315 320 321 320 315 314 311 310 308 312 313 309 308 311 308 300 292 281 265 261 254 241 250 258 214 190 185 179 172 176 178 180 179 177 186 192 184 170 170 171 176 179 180 184 183 177 175 168 154 148 122 125 146 156 159 162 163 150 137 142 133 126 116
334 326 321 323 327 329 328 329 328 322 326 326 324 320 314 307 304 303 308 310 311 311 312 314 313 310 309 309 309 307 305 310 313 313 320 323 320 312 301 287 274 252 244 230 230 236 217 181 168 161 163 165 170 160 168 166 174 175 181 182 182 179 177 170 166 179 180 172 155 137 133 144 151 150 151 161 165 165 170 155 141 144 144 134 112
327 317 320 329 330 334 331 330 327 324 320 319 313 311 312 311 305 298 283 279 291 300 306 302 298 297 297 301 304 302 302 305 307 308 300 299 300 302 304 301 285 263 241 226 216 236 205 162 149 159 160 164 165 170 168 165 173 179 182 186 188 178 173 172 179 183 176 163 162 158 155 150 150 156 161 161 167 164 166 143 144 143 156 152 143
327 330 333 333 328 331 331 329 325 323 321 322 323 315 300 297 297 292 298 299 294 296 298 294 293 293 291 289 288 294 303 302 302 302 298 295 293 289 286 287 287 264 250 227 197 193 197 170 170 167 170 165 172 178 180 177 174 179 189 186 182 179 178 178 180 178 170 170 163 161 162 160 160 165 167 163 155 165 171 157 153 152 150 154 141
329 328 334 332 330 330 326 323 323 322 323 322 321 321 322 319 302 299 298 299 305 307 306 303 304 305 311 314 309 298 290 292 299 306 304 299 292 291 290 286 290 285 254 229 223 205 192 181 180 175 174 175 176 181 178 178 180 177 179 179 182 177 174 178 179 168 167 164 165 165 164 167 166 168 168 165 160 161 161 160 151 158 160 153 143
326 326 325 319 325 330 326 325 326 328 327 327 326 324 325 325 321 312 303 310 311 311 312 313 317 320 319 316 314 312 308 305 307 311 310 304 294 290 290 288 281 280 281 246 230 227 199 188 182 182 175 180 185 178 176 178 177 176 173 174 182 180 176 182 175 167 169 166 166 169 170 170 167 168 165 161 162 162 162 156 163 163 153 150 154
317 316 315 316 318 319 325 330 330 328 325 327 326 328 328 326 325 323 323 320 314 316 319 321 324 324 323 320 315 312 312 315 316 316 313 306 298 288 281 281 278 272 280 266 234 233 220 203 186 184 179 183 185 184 182 178 175 179 177 179 178 181 185 182 167 171 169 170 165 168 168 167 165 165 165 163 166 167 166 163 164 163 154 144 142
314 310 313 316 319 321 325 325 322 321 318 317 320 324 321 316 314 314 317 324 329 327 320 327 328 325 325 321 316 315 322 325 324 323 319 308 296 288 281 276 273 268 259 258 249 236 218 210 198 188 186 184 184 184 182 182 179 177 179 182 183 179 181 166 165 170 168 167 169 167 168 168 167 165 167 169 171 165 165 166 162 159 160 158 153
318 315 319 325 322 323 321 317 314 313 312 318 320 320 318 318 319 318 318 322 320 319 323 327 328 325 320 319 319 332 335 331 328 325 324 313 296 286 285 280 277 282 260 253 259 252 234 212 194 189 185 187 189 183 184 181 178 178 178 176 173 170 163 166 171 171 172 170 169 170 170 168 171 171 166 166 166 171 171 165 169 166 160 157 152
318 312 315 322 325 318 313 311 310 310 313 314 315 316 318 319 318 314 314 313 312 312 315 320 320 322 323 322 332 335 332 330 326 324 324 315 302 286 263 259 271 276 269 265 267 270 267 239 205 192 190 194 190 188 182 178 180 179 178 173 170 164 166 170 171 172 172 170 172 167 166 170 169 167 167 167 170 171 170 170 168 170 165 161 161
315 312 317 320 321 320 317 313 310 311 311 310 312 316 317 315 310 312 313 315 315 314 313 317 323 324 328 336 340 335 333 329 322 317 318 314 309 280 254 278 287 297 298 289 272 273 275 274 250 206 191 190 189 188 180 181 176 174 179 178 167 163 167 171 173 171 168 170 170 169 169 168 169 170 167 170 174 173 172 172 171 166 165 160 152
312 315 311 317 320 319 318 316 316 318 314 312 317 319 318 316 317 318 317 317 319 320 317 321 325 321 327 329 338 337 331 323 320 325 329 312 316 284 271 276 271 270 279 289 281 275 274 279 277 238 208 197 190 185 185 180 178 176 175 177 171 172 164 167 173 173 174 170 168 168 166 166 169 169 173 173 172 172 174 173 167 160 155 157 160
319 325 327 328 329 324 320 319 317 321 319 323 324 324 323 321 321 319 318 314 314 316 319 319 320 324 327 330 331 335 334 330 331 323 325 321 306 292 285 277 269 259 256 260 291 300 291 281 281 283 237 201 193 183 177 177 173 177 175 172 171 162 165 171 171 174 172 172 166 165 168 170 171 174 175 174 175 173 169 169 167 162 159 165 174
327 327 330 334 330 329 327 322 327 327 328 327 325 325 322 322 322 322 321 320 319 320 319 321 325 326 327 329 333 335 332 322 315 321 328 331 323 308 289 283 287 277 275 262 247 248 277 284 285 277 256 231 193 182 178 169 171 169 172 175 172 172 172 170 171 173 176 172 167 168 169 168 171 170 173 177 174 169 169 168 169 171 172 168 162
326 325 328 331 331 327 324 332 335 334 330 326 322 323 320 321 322 320 320 319 318 319 319 322 323 321 322 327 329 332 325 316 321 323 328 334 336 326 308 290 279 277 279 270 269 265 266 275 276 280 256 215 200 192 178 172 168 168 173 178 176 176 173 175 175 176 175 172 170 168 167 165 165 166 173 177 171 170 171 168 166 166 162 158 154
326 327 328 324 328 328 333 341 337 334 329 325 321 322 322 322 323 324 326 324 322 322 320 322 321 321 320 327 332 335 332 324 327 327 331 337 339 339 330 317 300 290 283 277 270 267 261 253 253 258 262 236 185 178 173 173 174 172 171 171 177 174 176 179 176 177 176 174 171 169 168 168 169 176 173 165 163 165 160 165 165 159 157 153 154
328 326 327 325 331 338 340 335 336 333 334 328 324 326 326 327 327 329 326 325 325 325 325 324 323 326 324 328 332 335 333 332 332 331 331 337 339 337 335 333 327 313 294 287 281 284 287 277 255 236 233 224 209 181 171 175 173 176 174 172 170 170 174 175 174 176 176 177 175 169 166 165 165 167 164 165 164 162 164 160 157 157 155 153 153
327 330 328 327 329 331 334 335 339 339 332 329 328 328 330 332 330 330 329 328 328 329 326 324 325 327 325 328 333 337 336 335 335 335 334 336 337 338 334 328 326 327 319 303 293 295 298 295 279 267 252 221 204 193 181 168 166 169 174 170 169 170 171 174 177 175 174 174 170 168 165 163 165 165 163 162 158 156 156 157 158 157 155 154 150
328 333 331 331 336 337 336 340 337 338 335 334 332 334 336 338 335 334 334 332 332 331 330 328 330 328 327 331 333 333 332 332 332 333 335 334 333 333 330 325 324 321 323 322 307 300 301 303 307 310 305 291 250 212 202 182 170 164 167 168 173 173 178 179 179 176 171 168 169 170 168 166 165 164 161 161 162 160 160 162 160 155 153 156 157
336 335 335 337 337 338 341 341 343 337 339 339 337 335 339 339 338 337 338 337 336 332 330 329 328 329 329 330 329 330 329 331 331 331 331 331 331 329 327 322 320 319 319 322 322 306 292 292 291 292 287 303 303 268 240 230 210 183 167 176 178 182 175 166 164 165 172 171 167 169 169 167 166 166 165 162 165 164 163 160 160 163 163 163 163
339 340 339 340 341 340 341 342 339 341 343 340 337 336 338 337 339 338 339 340 339 335 332 332 333 332 331 330 329 329 329 329 329 331 330 329 327 327 328 324 323 321 322 323 328 326 307 287 281 282 290 283 286 297 292 261 227 221 193 171 174 173 168 163 163 166 168 171 164 163 166 166 165 161 162 159 156 160 159 162 165 164 164 162 158
344 343 342 342 343 344 344 343 341 343 339 338 337 338 336 339 336 337 336 335 336 334 333 331 331 332 331 330 330 328 327 325 325 325 326 328 326 327 326 327 327 324 321 324 326 333 334 313 281 279 279 279 266 254 257 257 247 224 196 176 168 164 162 160 159 160 161 158 163 164 163 165 162 160 161 162 161 159 158 159 158 160 157 156 153
346 346 345 346 348 348 344 343 340 339 336 337 335 337 336 339 340 338 336 334 334 333 332 331 330 330 332 331 331 327 325 325 326 328 330 328 328 330 329 329 327 324 325 324 326 329 332 334 322 282 266 256 247 249 259 235 208 206 208 197 170 160 161 162 159 161 154 153 156 158 160 160 161 162 160 161 162 161 158 157 157 155 152 151 151
346 344 345 343 347 343 341 338 334 332 333 336 337 337 338 341 343 343 337 335 333 334 333 333 330 330 329 332 333 332 330 331 331 329 328 326 328 330 331 328 329 328 329 328 326 326 331 331 337 334 308 261 243 232 226 235 224 201 204 187 180 170 161 160 160 159 158 157 156 159 161 160 160 160 161 159 156 157 158 159 159 157 158 157 158
347 348 345 345 344 342 340 339 339 339 338 337 343 340 342 343 342 336 333 332 333 331 331 331 330 330 331 331 330 330 330 331 328 327 328 328 328 329 332 333 332 330 332 329 329 331 331 338 338 339 338 323 278 238 228 220 219 212 192 188 184 183 175 167 164 168 163 156 156 157 160 162 160 161 161 161 159 161 161 158 157 158 159 159 156